AXY22W BIKF-BIAR

Flight info

Callsign AXY22W
Flight time 0h 36m
Altitude 23000
Route LUTER2A LUTER DCT ASKUR
Aircraft B736/M-SDE2E3FGHIRWXY/LB1

Departure

Time 2026-05-05 15:36
Airport Keflavik International Airport (BIKF)

Arrival

Time 2026-05-05 16:12
Airport Akureyri International Airport (BIAR)
Time Latitude Longitude Altitude Speed Heading
2026-05-05 15:18 63.97519 -22.59596 157 ft 0 kts 275°
2026-05-05 15:29 63.97519 -22.59597 157 ft 0 kts 275°
2026-05-05 15:29 63.97513 -22.59631 157 ft 4 kts 228°
2026-05-05 15:29 63.97486 -22.59645 156 ft 4 kts 187°
2026-05-05 15:30 63.97450 -22.59649 156 ft 7 kts 180°
2026-05-05 15:30 63.97392 -22.59651 155 ft 10 kts 182°
2026-05-05 15:30 63.97319 -22.59708 154 ft 11 kts 202°
2026-05-05 15:30 63.97285 -22.59835 153 ft 11 kts 287°
2026-05-05 15:31 63.97314 -22.59994 153 ft 11 kts 292°
2026-05-05 15:31 63.97343 -22.60152 153 ft 11 kts 292°
2026-05-05 15:31 63.97371 -22.60304 153 ft 10 kts 293°
2026-05-05 15:31 63.97398 -22.60453 154 ft 10 kts 291°
2026-05-05 15:32 63.97421 -22.60599 154 ft 10 kts 283°
2026-05-05 15:32 63.97439 -22.60748 153 ft 10 kts 286°
2026-05-05 15:32 63.97443 -22.60894 153 ft 9 kts 248°
2026-05-05 15:32 63.97388 -22.60949 153 ft 9 kts 178°
2026-05-05 15:33 63.97319 -22.60949 152 ft 13 kts 180°
2026-05-05 15:33 63.97218 -22.60948 151 ft 15 kts 180°
2026-05-05 15:33 63.97090 -22.60947 150 ft 20 kts 180°
2026-05-05 15:33 63.96953 -22.60947 149 ft 19 kts 180°
2026-05-05 15:34 63.96821 -22.60946 147 ft 19 kts 180°
2026-05-05 15:34 63.96693 -22.60945 146 ft 18 kts 180°
2026-05-05 15:34 63.96570 -22.60945 145 ft 17 kts 180°
2026-05-05 15:34 63.96482 -22.60919 144 ft 11 kts 156°
2026-05-05 15:35 63.96460 -22.60762 144 ft 11 kts 94°
2026-05-05 15:35 63.96466 -22.60590 143 ft 11 kts 71°
2026-05-05 15:35 63.96533 -22.60545 144 ft 11 kts
2026-05-05 15:35 63.96608 -22.60545 145 ft 20 kts 358°
2026-05-05 15:36 63.96993 -22.60546 149 ft 93 kts
2026-05-05 15:36 63.97852 -22.60512 274 ft 144 kts
2026-05-05 15:36 63.98853 -22.60502 1216 ft 140 kts 358°
2026-05-05 15:36 63.99790 -22.60997 2172 ft 140 kts 359°
2026-05-05 15:37 64.00855 -22.60957 2742 ft 171 kts
2026-05-05 15:37 64.02141 -22.60789 3343 ft 191 kts
2026-05-05 15:37 64.03491 -22.60573 4235 ft 198 kts 13°
2026-05-05 15:37 64.04789 -22.59401 5179 ft 202 kts 34°
2026-05-05 15:38 64.05818 -22.57222 6117 ft 208 kts 51°
2026-05-05 15:38 64.06371 -22.53984 6578 ft 238 kts 85°
2026-05-05 15:38 64.06366 -22.50040 7229 ft 256 kts 89°
2026-05-05 15:38 64.06339 -22.45966 8085 ft 265 kts 88°
2026-05-05 15:39 64.06318 -22.41664 8916 ft 276 kts 87°
2026-05-05 15:39 64.06385 -22.37234 9807 ft 283 kts 83°
2026-05-05 15:39 64.06538 -22.32695 10642 ft 291 kts 83°
2026-05-05 15:39 64.06717 -22.27877 10945 ft 318 kts 83°
2026-05-05 15:40 64.06909 -22.22638 11306 ft 340 kts 83°
2026-05-05 15:40 64.07095 -22.17250 11995 ft 350 kts 84°
2026-05-05 15:40 64.07283 -22.11570 12774 ft 358 kts 84°
2026-05-05 15:40 64.07466 -22.05850 13535 ft 365 kts 84°
2026-05-05 15:41 64.07650 -21.99990 14258 ft 373 kts 84°
2026-05-05 15:41 64.07831 -21.94109 14926 ft 379 kts 84°
2026-05-05 15:41 64.08015 -21.88050 15645 ft 385 kts 84°
2026-05-05 15:41 64.08200 -21.81911 16346 ft 391 kts 84°
2026-05-05 15:42 64.08388 -21.75589 17036 ft 397 kts 84°
2026-05-05 15:42 64.08573 -21.69246 17734 ft 402 kts 84°
2026-05-05 15:42 64.08754 -21.62904 18413 ft 409 kts 84°
2026-05-05 15:42 64.08938 -21.56358 19113 ft 415 kts 84°
2026-05-05 15:43 64.09121 -21.49729 19860 ft 419 kts 84°
2026-05-05 15:43 64.09305 -21.42953 20586 ft 424 kts 84°
2026-05-05 15:43 64.09486 -21.36192 21287 ft 429 kts 84°
2026-05-05 15:43 64.09666 -21.29350 22001 ft 434 kts 84°
2026-05-05 15:44 64.09847 -21.22406 22681 ft 440 kts 84°
2026-05-05 15:44 64.10026 -21.15393 23252 ft 442 kts 84°
2026-05-05 15:44 64.10199 -21.08433 23238 ft 445 kts 85°
2026-05-05 15:44 64.10369 -21.01384 23257 ft 447 kts 85°
2026-05-05 15:45 64.10543 -20.94132 23277 ft 467 kts 85°
2026-05-05 15:45 64.10722 -20.86571 23257 ft 484 kts 85°
2026-05-05 15:45 64.10901 -20.78795 23252 ft 494 kts 85°
2026-05-05 15:45 64.11075 -20.70911 23242 ft 496 kts 85°
2026-05-05 15:46 64.11245 -20.63072 23231 ft 491 kts 85°
2026-05-05 15:46 64.11410 -20.55289 23239 ft 488 kts 85°
2026-05-05 15:46 64.11621 -20.47560 23235 ft 486 kts 80°
2026-05-05 15:46 64.12565 -20.40220 23254 ft 478 kts 60°
2026-05-05 15:47 64.14300 -20.33814 23252 ft 471 kts 46°
2026-05-05 15:47 64.16609 -20.28609 23253 ft 462 kts 31°
2026-05-05 15:47 64.19262 -20.24526 23263 ft 458 kts 27°
2026-05-05 15:47 64.21957 -20.20613 23266 ft 458 kts 27°
2026-05-05 15:48 64.24664 -20.16718 23261 ft 459 kts 27°
2026-05-05 15:48 64.27366 -20.12801 23252 ft 459 kts 27°
2026-05-05 15:48 64.30054 -20.08856 23269 ft 458 kts 28°
2026-05-05 15:48 64.32734 -20.04879 23260 ft 458 kts 28°
2026-05-05 15:49 64.35366 -20.00940 23256 ft 457 kts 28°
2026-05-05 15:49 64.38066 -19.96873 23270 ft 456 kts 28°
2026-05-05 15:49 64.40718 -19.92864 23268 ft 455 kts 29°
2026-05-05 15:49 64.43366 -19.88850 23271 ft 455 kts 29°
2026-05-05 15:50 64.46007 -19.84837 23267 ft 454 kts 29°
2026-05-05 15:50 64.48643 -19.80826 23266 ft 453 kts 29°
2026-05-05 15:50 64.51271 -19.76817 23270 ft 452 kts 30°
2026-05-05 15:50 64.53900 -19.72799 23278 ft 452 kts 30°
2026-05-05 15:51 64.56491 -19.68824 23170 ft 438 kts 30°
2026-05-05 15:51 64.58982 -19.64987 23144 ft 418 kts 30°
2026-05-05 15:51 64.61363 -19.61311 23082 ft 403 kts 30°
2026-05-05 15:51 64.63681 -19.57734 22785 ft 397 kts 30°
2026-05-05 15:52 64.65974 -19.54196 22338 ft 394 kts 31°
2026-05-05 15:52 64.68252 -19.50676 21807 ft 391 kts 31°
2026-05-05 15:52 64.70507 -19.47184 21291 ft 388 kts 31°
2026-05-05 15:52 64.72739 -19.43717 20790 ft 385 kts 31°
2026-05-05 15:53 64.74959 -19.40261 20289 ft 382 kts 32°
2026-05-05 15:53 64.77166 -19.36817 19791 ft 377 kts 32°
2026-05-05 15:53 64.79335 -19.33427 19302 ft 371 kts 33°
2026-05-05 15:53 64.81467 -19.30088 18823 ft 366 kts 34°
2026-05-05 15:54 64.83543 -19.26829 18316 ft 361 kts 34°
2026-05-05 15:54 64.85643 -19.23525 17763 ft 356 kts 34°
2026-05-05 15:54 64.87660 -19.20345 17229 ft 350 kts 34°
2026-05-05 15:54 64.89652 -19.17199 16694 ft 341 kts 35°
2026-05-05 15:55 64.91635 -19.14062 16166 ft 338 kts 35°
2026-05-05 15:55 64.93577 -19.10984 15656 ft 336 kts 35°
2026-05-05 15:55 64.95509 -19.07917 15164 ft 334 kts 35°
2026-05-05 15:55 64.97407 -19.04897 14677 ft 333 kts 35°
2026-05-05 15:56 64.99323 -19.01844 14191 ft 332 kts 35°
2026-05-05 15:56 65.01229 -18.98802 13707 ft 329 kts 35°
2026-05-05 15:56 65.03114 -18.95789 13294 ft 325 kts 35°
2026-05-05 15:56 65.04970 -18.92817 12924 ft 319 kts 35°
2026-05-05 15:57 65.06794 -18.89891 12566 ft 315 kts 35°
2026-05-05 15:57 65.08597 -18.86995 12206 ft 312 kts 35°
2026-05-05 15:57 65.10384 -18.84117 11855 ft 309 kts 36°
2026-05-05 15:57 65.12158 -18.81256 11487 ft 307 kts 36°
2026-05-05 15:58 65.13923 -18.78406 11162 ft 306 kts 36°
2026-05-05 15:58 65.15675 -18.75574 10825 ft 305 kts 36°
2026-05-05 15:58 65.17426 -18.72736 10488 ft 303 kts 36°
2026-05-05 15:58 65.19158 -18.69889 10154 ft 302 kts 39°
2026-05-05 15:59 65.20628 -18.66375 9781 ft 298 kts 53°
2026-05-05 15:59 65.21898 -18.62489 9409 ft 297 kts 54°
2026-05-05 15:59 65.23150 -18.58587 9053 ft 294 kts 53°
2026-05-05 15:59 65.24379 -18.54760 8686 ft 285 kts 53°
2026-05-05 16:00 65.25560 -18.51099 8312 ft 273 kts 53°
2026-05-05 16:00 65.26699 -18.47575 7955 ft 263 kts 52°
2026-05-05 16:00 65.27802 -18.44171 7608 ft 255 kts 52°
2026-05-05 16:00 65.28872 -18.40867 7264 ft 249 kts 52°
2026-05-05 16:01 65.29912 -18.37654 7037 ft 238 kts 52°
2026-05-05 16:01 65.30890 -18.34631 6995 ft 221 kts 52°
2026-05-05 16:01 65.31797 -18.31828 6977 ft 204 kts 51°
2026-05-05 16:01 65.32628 -18.29255 6983 ft 187 kts 51°
2026-05-05 16:02 65.33389 -18.26898 7003 ft 174 kts 51°
2026-05-05 16:02 65.34110 -18.24662 7002 ft 169 kts 51°
2026-05-05 16:02 65.34823 -18.22452 6876 ft 161 kts 51°
2026-05-05 16:02 65.35495 -18.20370 6794 ft 158 kts 51°
2026-05-05 16:03 65.36152 -18.18328 6746 ft 146 kts 50°
2026-05-05 16:03 65.36727 -18.16536 6628 ft 128 kts 50°
2026-05-05 16:03 65.37255 -18.14892 6497 ft 122 kts 50°
2026-05-05 16:03 65.37779 -18.13262 6388 ft 125 kts 50°
2026-05-05 16:04 65.38321 -18.11574 6305 ft 129 kts 49°
2026-05-05 16:04 65.38871 -18.09859 6215 ft 130 kts 49°
2026-05-05 16:04 65.39419 -18.08150 6072 ft 126 kts 50°
2026-05-05 16:04 65.40015 -18.06684 5938 ft 123 kts 24°
2026-05-05 16:05 65.40861 -18.06595 5882 ft 126 kts 358°
2026-05-05 16:05 65.41740 -18.06381 5772 ft 127 kts 10°
2026-05-05 16:05 65.42622 -18.06125 5683 ft 128 kts
2026-05-05 16:05 65.43507 -18.05951 5558 ft 128 kts
2026-05-05 16:06 65.44391 -18.05877 5443 ft 126 kts
2026-05-05 16:06 65.45270 -18.05871 5336 ft 126 kts
2026-05-05 16:06 65.46148 -18.05901 5241 ft 127 kts
2026-05-05 16:06 65.47040 -18.05950 5137 ft 128 kts 359°
2026-05-05 16:07 65.47931 -18.06009 5024 ft 127 kts 359°
2026-05-05 16:07 65.48823 -18.06072 4913 ft 131 kts 359°
2026-05-05 16:07 65.49718 -18.06137 4811 ft 125 kts 359°
2026-05-05 16:07 65.50580 -18.06202 4811 ft 125 kts 359°
2026-05-05 16:08 65.51439 -18.06268 4816 ft 128 kts 359°
2026-05-05 16:08 65.52343 -18.06336 4569 ft 130 kts 359°
2026-05-05 16:08 65.53252 -18.06405 4243 ft 128 kts 358°
2026-05-05 16:08 65.54115 -18.06471 3925 ft 121 kts 358°
2026-05-05 16:09 65.54942 -18.06533 3641 ft 118 kts 358°
2026-05-05 16:09 65.55774 -18.06596 3354 ft 120 kts 358°
2026-05-05 16:09 65.56612 -18.06660 3035 ft 120 kts 358°
2026-05-05 16:09 65.57448 -18.06724 2667 ft 120 kts 358°
2026-05-05 16:10 65.58269 -18.06786 2312 ft 115 kts 359°
2026-05-05 16:10 65.59051 -18.06845 1994 ft 110 kts 359°
2026-05-05 16:10 65.59825 -18.06903 1730 ft 113 kts 359°
2026-05-05 16:10 65.60600 -18.06965 1465 ft 112 kts 359°
2026-05-05 16:11 65.61383 -18.07024 1233 ft 110 kts 359°
2026-05-05 16:11 65.63670 -18.06799 466 ft 110 kts 353°
2026-05-05 16:12 65.64442 -18.06978 127 ft 111 kts 355°
2026-05-05 16:12 65.65565 -18.07182 19 ft 27 kts 356°
2026-05-05 16:13 65.65620 -18.07222 19 ft 0 kts 239°
2026-05-05 16:13 65.65616 -18.07224 20 ft 2 kts 207°
2026-05-05 16:13 65.65596 -18.07223 21 ft 3 kts 167°
2026-05-05 16:14 65.65478 -18.07234 20 ft 7 kts 242°
2026-05-05 16:14 65.65475 -18.07438 20 ft 6 kts 264°
2026-05-05 16:15 65.65477 -18.07500 20 ft 0 kts 313°
2026-05-05 16:15 65.65484 -18.07491 20 ft 0 kts 30°